Terug naar catalogus

XINGWANG JISHU SW 01-01

ActiefCommunicatiePO
NORAD 57288·PAYLOAD·🇨🇳 China
Deze satellietnaam is nog niet bevestigd door officiële bronnen.

Gelanceerd Jul 9, 2023 vanaf Jiuquan Satellite Launch Center

Loading…

Volgende Passages (komende 24 uur)

TLE

VersSource: Space-Track

Epoch: Sep 14, 2026, 14:12 UTC

1 57288U 23095A   26257.59229829  .00000053  00000-0  69495-4 0  9992
2 57288  86.5073 333.8505 0016006 304.3359  55.6269 13.39547090155722

Volg XINGWANG JISHU SW 01-01 in realtime met AllMySat

Download on the App Store